Location: Blenheim
(48.6355°N, 10.6471°E)
Time: 11:22:42
(UTC+00:00)

Daily predictions for brighter satellites

Satellite Brightness Start Highest point End
(mag) Time Altitude Azimuth Time Altitude Azimuth Time Altitude Azimuth
NOSS 3-1 (A) 4.1 15:46:05 10° NW 15:53:20 69° NE 16:01:56 10° SE
Envisat 4.1 15:48:29 10° S 15:53:24 49° W 15:58:21 10° NNW
Cosmos 1743 Rocket 4.2 15:50:10 10° N 15:54:09 34° ENE 15:58:05 10° SE
NOSS 3-1 (C) 4.2 15:46:45 10° NW 15:54:09 87° SW 16:02:52 10° SE
ATLAS CENTAUR R/B 2.8 15:50:37 10° WSW 15:54:28 34° NW 15:58:37 10° NNE
USA 234 3.3 15:48:06 10° ESE 15:54:37 76° NNE 16:01:09 10° NW
COSMOS 2406 4.4 15:50:57 10° SSE 15:55:22 23° ESE 15:59:49 10° NE
NOSS 2-1 (D) 3.9 15:52:26 10° WSW 15:55:29 38° NW 15:58:43 10° NNE
COSMOS 2455 4.3 15:52:03 10° SE 15:55:55 18° ESE 15:59:48 10° ENE
NOAA 11 4.2 15:50:50 10° SSE 15:56:15 86° ENE 16:01:43 10° NNW
NOAA 12 4.2 15:51:52 10° SSE 15:57:06 60° ENE 16:02:20 10° N
Meteor 1-31 Rocket 3.9 15:55:42 10° S 15:59:21 48° W 16:03:05 10° NNW
Cosmos 1833 Rocket 3.5 15:57:10 10° SSE 16:02:06 33° ESE 16:07:04 10° NE
USA 308 3.4 15:58:20 10° W 16:02:28 48° NNW 16:06:36 10° ENE
ARGOS 4.4 16:00:13 10° E 16:03:58 19° ENE 16:07:43 10° NNE
Spot 1 4.4 16:00:23 10° NNE 16:05:01 62° ESE 16:09:54 10° S
Cosmos 1340 Rocket 2.9 16:05:54 10° N 16:09:57 61° ENE 16:13:59 10° SSE
Cosmos 1464 Rocket 4.1 16:03:43 10° S 16:10:05 82° E 16:16:30 10° N
SJ 16-02 3.1 16:06:20 10° NW 16:10:23 37° WSW 16:14:25 10° S
CZ-4C R/B 3.6 16:06:44 10° N 16:10:38 66° WNW 16:14:18 10° SSW
ISS -3.5 16:10:27 10° WNW 16:13:49 55° N 16:17:11 10° E
Cosmos 1606 3.0 16:13:02 10° SSW 16:16:47 69° WNW 16:20:35 10° N
CZ-2D R/B 4.1 16:13:57 10° SE 16:17:15 28° ENE 16:20:34 10° N
Nadezhda 4 Rocket 4.0 16:11:20 10° N 16:17:41 81° E 16:24:01 10° SSE
Lacrosse 5 rocket 2.5 16:14:45 10° NW 16:18:00 26° N 16:20:54 12° ENE
CZ-4B R/B 3.9 16:15:42 10° ESE 16:20:20 30° ENE 16:24:56 10° N
Cosmos 2360 4.3 16:14:51 10° NNW 16:20:33 59° ENE 16:26:11 10° SE
Meteor 1-20 Rocket 4.3 16:16:10 10° N 16:21:58 65° ENE 16:27:47 10° SSE
CZ-2C R/B 3.8 16:18:58 10° NE 16:22:49 21° E 16:26:39 10° SE
Cosmos 1500 Rocket 3.5 16:18:42 10° N 16:23:10 70° E 16:27:32 10° SSE
CZ-4C R/B 3.2 16:17:14 10° NW 16:23:44 44° NE 16:31:26 10° ESE
Cosmos 540 Rocket 4.2 16:19:25 10° SSE 16:23:56 33° ESE 16:28:30 10° NE
CZ-4B R/B 3.2 16:23:19 10° S 16:27:23 69° WSW 16:31:15 10° NNW
Cosmos 1500 3.9 16:25:21 10° N 16:28:41 29° ENE 16:31:59 10° SE
SMAP 3.0 16:24:26 10° SSE 16:29:03 74° ENE 16:33:44 10° N
USA 305 3.6 16:25:48 10° WNW 16:29:49 41° N 16:32:56 16° ENE
CZ-2C R/B 3.4 16:26:22 10° S 16:31:14 64° WSW 16:36:00 10° NNW
Cosmos 1092 Rocket 4.0 16:26:07 10° N 16:32:26 64° ENE 16:38:43 10° SSE
Cosmos 468 Rocket 4.0 16:28:28 10° S 16:33:33 65° ESE 16:38:43 10° NNE
Cosmos 1898 Rocket 3.4 16:28:57 10° NNW 16:34:15 81° ENE 16:39:28 10° SSE
Cosmos 1805 Rocket 3.6 16:30:26 10° N 16:34:43 55° ENE 16:38:57 10° SSE
Sich 1 3.3 16:31:15 10° N 16:35:22 44° ENE 16:39:29 10° SSE
Cosmos 1933 3.5 16:32:53 10° S 16:36:49 51° E 16:40:45 10° NNE
Cosmos 1428 Rocket 4.5 16:31:05 10° N 16:37:10 60° ENE 16:43:14 10° SSE
Cosmos 2360 Rocket 4.0 16:36:53 10° N 16:39:24 13° NNE 16:40:27 12° NE
Cosmos 1842 Rocket 4.1 16:35:08 10° SSW 16:39:32 61° WNW 16:44:00 10° N
Cosmos 2221 3.4 16:35:29 10° SSW 16:39:39 52° WNW 16:43:53 10° N
PSLV R/B 3.6 16:38:46 10° SSE 16:42:23 59° ENE 16:46:05 10° N
SL-08 R/B 4.3 16:40:16 10° N 16:44:49 48° WNW 16:49:16 10° SW
Cosmos 2084 4.4 16:46:54 10° NW 16:51:06 51° SW 16:55:25 10° SSE
deb Chang Zheng 4 3.9 16:48:06 10° SE 16:52:09 42° ENE 16:56:14 10° N
AQUARIUS 4.3 16:48:12 10° S 16:52:42 78° WSW 16:57:13 10° NNW
Cosmos 1627 Rocket 4.4 16:46:57 10° N 16:53:10 77° E 16:59:17 10° SSE
H-2A R/B 1.9 16:49:55 10° SSE 16:55:03 68° ENE 17:00:04 10° N
Cosmos 2034 Rocket 4.4 16:50:16 10° SSW 16:56:23 67° WNW 17:02:32 10° N
Meteor 1-14 Rocket 4.5 16:50:55 10° N 16:56:34 50° ENE 17:02:17 10° SSE
NOSS 2-2 (C) 4.2 16:52:37 10° NW 16:57:36 74° NE 17:04:39 10° SE
Cosmos 1666 3.2 16:54:57 10° N 16:58:24 34° ENE 17:01:48 10° SE
ERBS 3.9 16:55:56 10° WNW 16:58:36 23° NNW 16:59:46 19° NNE
Cosmos 2322 Rocket 3.4 16:55:03 10° N 16:59:20 21° NE 17:00:05 21° NE
USA 306 3.6 16:58:01 10° WNW 17:02:02 39° N 17:03:44 27° NE
Cosmos 2279 Rocket 4.2 16:56:37 10° SSE 17:02:28 46° E 17:08:21 10° NNE
Cosmos 1697 Rocket 3.0 16:57:13 10° NNW 17:02:48 68° WSW 17:08:22 10° SSE
USA 267 3.4 16:58:13 19° NE 17:03:12 75° NNW 17:09:43 10° WSW
SJ-11-01 4.5 16:58:52 10° SE 17:03:25 48° ENE 17:07:59 10° N
Cosmos 2369 3.7 17:00:27 10° NNW 17:06:14 89° ENE 17:11:57 10° SSE
Cosmos 1980 Rocket 2.1 17:01:02 10° NNW 17:06:45 74° ENE 17:12:22 10° SE
COSMO-SKYMED 1 2.9 17:05:08 23° NE 17:07:30 43° E 17:11:38 10° S
MOS 1-B Rocket 4.0 17:01:53 10° NNE 17:07:42 63° ESE 17:14:14 10° S
Cosmos 1763 Rocket 3.8 17:03:24 10° SSW 17:08:26 65° WNW 17:13:30 10° NNE
Meteor 1-5 Rocket 4.4 17:02:53 10° N 17:08:47 56° ENE 17:14:35 10° SSE
Cosmos 1939 Rocket 4.4 17:05:04 10° SSW 17:08:57 39° W 17:12:48 10° NNW
SL-24 R/B - RUBIN 2 3.4 17:07:09 10° NW 17:11:46 84° NE 17:15:48 12° SE
Meteor 2-21 4.4 17:06:09 10° N 17:12:17 88° W 17:18:20 10° S
Cosmos 841 Rocket 3.4 17:08:44 10° S 17:13:52 68° ESE 17:17:15 21° NNE
Cosmos 1812 2.8 17:11:45 10° S 17:15:29 52° E 17:16:31 39° NE
Cosmos 1937 Rocket 4.0 17:10:28 10° NNW 17:15:45 65° WSW 17:21:00 10° S
SL-16 R/B 2.9 17:11:37 10° NNW 17:16:40 31° NE 17:17:26 30° ENE
Cosmos 1125 Rocket 4.2 17:12:25 10° N 17:17:03 30° NE 17:17:07 30° ENE
Cosmos 1634 Rocket 4.0 17:11:39 10° S 17:17:59 89° E 17:24:22 10° N
Cosmos 1633 Rocket 3.0 17:14:21 10° N 17:18:40 57° ENE 17:22:59 10° SSE
USA 307 3.6 17:16:21 10° WNW 17:20:24 40° N 17:21:20 35° NE
YAOGAN 1 3.9 17:22:20 24° NNE 17:22:20 24° NNE 17:24:28 10° N
Cosmos 2082 Rocket 2.2 17:15:50 10° SSW 17:21:26 62° ESE 17:24:27 27° NE
Cosmos 2026 Rocket 4.3 17:17:59 10° NNW 17:24:06 68° W 17:30:06 10° S
Cosmos 2333 Rocket 4.0 17:21:45 10° N 17:24:11 15° NNE 17:24:11 15° NNE
Okean O Rocket 1.5 17:25:27 10° SSE 17:29:54 83° ENE 17:34:24 10° NNW
Cosmos 372 Rocket 4.1 17:24:52 10° NNW 17:30:06 75° WSW 17:35:20 10° SSE
ATLAS 2AS CENTAUR R/B 4.2 17:24:08 10° NW 17:30:16 25° N 17:33:28 19° NNE
Cosmos 2278 3.6 17:24:57 10° NNW 17:30:43 80° ENE 17:36:24 10° SSE
SKYMED 3 4.4 17:29:31 29° NNE 17:31:41 76° ESE 17:36:01 10° S
ATLAS CENTAUR R/B 3.9 17:32:34 10° NW 17:34:43 13° NNW 17:36:14 12° N
Cosmos 1151 Rocket 2.9 17:32:05 10° S 17:36:23 82° E 17:38:08 36° NNE
Cosmos 1782 3.5 17:32:36 10° SSW 17:36:30 52° WNW 17:39:43 15° N
Cosmos 1655 Rocket 4.1 17:30:22 10° N 17:36:41 55° ENE 17:42:54 10° SSE
USA 234 4.4 17:31:49 10° SSE 17:37:57 42° SW 17:44:06 10° WNW
COSMOS 2406 3.5 17:33:29 10° SW 17:39:12 65° WNW 17:43:05 21° NNE
COSMOS 2455 2.8 17:35:00 10° SSW 17:41:02 89° SE 17:43:55 33° NE
Meteor 2-15 4.4 17:36:26 10° S 17:42:23 56° E 17:45:42 26° NNE
USA 308 3.5 17:38:53 10° WNW 17:42:51 41° N 17:42:51 41° N
Cosmos 1666 Rocket 3.8 17:39:07 10° NNW 17:43:33 68° W 17:47:56 10° S
ARGOS 3.2 17:38:12 10° S 17:43:38 79° WSW 17:49:05 10° NNW
Cosmos 1833 Rocket 3.5 17:40:27 10° SW 17:45:51 47° NW 17:49:48 18° NNE
Cosmos 1470 Rocket 4.4 17:42:16 10° N 17:45:01 36° N 17:45:01 36° N
Cosmos 2180 Rocket 4.4 17:42:29 10° S 17:48:49 77° E 17:55:07 10° NNE
Meteor 2-6 Rocket 4.1 17:44:50 10° S 17:50:35 75° E 17:53:25 31° NNE
ISS -2.7 17:47:22 10° WNW 17:50:10 46° WSW 17:50:10 46° WSW
Cosmos 1328 Rocket 3.4 17:46:18 10° S 17:50:44 82° E 17:50:52 80° ENE
Cosmos 2219 Rocket 4.2 17:50:47 10° N 17:52:22 14° N 17:52:22 14° N
SKYMED 2 3.9 17:53:45 32° N 17:55:38 63° WNW 17:59:55 10° SSW
CZ-4 R/B 3.9 17:59:49 12° N 17:59:49 12° N 18:00:06 10° N
Lacrosse 5 rocket 2.1 17:53:45 10° NW 17:56:30 42° NNW 17:56:30 42° NNW
Landsat 5 3.6 18:00:26 68° SW 18:00:26 68° SW 18:04:01 10° SSW
NOAA 15 4.4 17:54:58 10° SSE 18:00:16 83° ENE 18:05:35 10° NNW
Cosmos 2298 Rocket 3.9 17:55:13 10° NNW 18:00:27 71° NE 18:00:27 71° NE
CZ-4B R/B 4.1 17:55:30 10° S 18:00:43 47° W 18:05:53 10° NNW
Cosmos 1570 Rocket 3.9 17:56:02 10° SSW 18:01:17 89° ESE 18:02:05 65° NNE
Meteor 2-8 Rocket 4.4 17:55:49 10° S 18:01:58 89° W 18:08:05 11° N
ATLAS CENTAUR R/B 2.6 17:55:24 10° WSW 18:02:58 54° NNW 18:03:24 52° N
GEOS 3 Rocket 3.5 18:02:08 55° SE 18:03:21 86° SW 18:08:35 10° NW
SL-08 RB Rocket 3.9 17:58:52 10° S 18:03:30 69° WSW 18:08:07 10° NNW
CZ-2C R/B 3.0 17:59:22 16° N 18:03:34 61° WNW 18:08:38 10° SSW
Meteor 1-11 Rocket 3.6 18:02:28 10° N 18:07:51 73° NE 18:07:51 73° NE
Cosmos 1818 3.4 18:03:06 10° NW 18:08:38 89° SW 18:09:02 78° SE
Meteor 1-10 Rocket 4.1 18:02:52 10° S 18:08:39 77° E 18:09:02 73° ENE
Cosmos 1814 Rocket 4.1 18:03:50 10° SSW 18:09:03 71° WNW 18:10:08 54° N
USA 305 4.1 18:06:08 10° WNW 18:08:56 35° NW 18:08:56 35° NW
Cosmos 44 Rocket 3.4 18:07:26 10° NW 18:11:47 68° NW 18:11:47 68° NW
CZ-4C R/B 3.2 18:05:38 10° NW 18:12:48 68° SW 18:20:10 14° SSE
Cosmos 2360 Rocket 3.6 18:19:33 10° NNW 18:22:13 26° N 18:22:13 26° N
Cosmos 2208 Rocket 4.4 18:28:44 10° SW 18:33:46 62° W 18:33:46 62° W
Cosmos 2322 Rocket 3.2 18:38:29 10° NNW 18:41:55 38° NNW 18:41:55 38° NNW
USA 267 3.8 18:45:34 45° N 18:45:47 45° N 18:51:56 10° WNW
SL-16 R/B 3.3 18:55:33 10° NW 18:59:21 40° WNW 18:59:21 40° WNW
Cosmos 2082 Rocket 3.8 19:01:05 10° WSW 19:05:57 28° NW 19:06:21 28° NW
Cosmos 2333 Rocket 4.4 19:05:01 10° NNW 19:06:11 16° NNW 19:06:11 16° NNW
ATLAS 2AS CENTAUR R/B 4.3 19:16:48 10° NW 19:20:53 27° NNW 19:20:53 27° NNW
